| time (UTC) | temp F | wind direction | speed MPH | gust MPH | rain 1hr in | rain 24hr in | rain mn in | humidity % | barometer mb |
| 20260505234634 | 52 | 1 | 0.0 | 2.0 | 0.00 | 0.09 | 0.00 | 89 | 1009.1 |
| 20260505233734 | 52 | 0 | 0.0 | 0.0 | 0.00 | 0.09 | 0.00 | 89 | 1009.1 |
| 20260505232834 | 53 | 0 | 0.0 | 0.0 | 0.00 | 0.09 | 0.00 | 89 | 1008.9 |
| 20260505231934 | 54 | 0 | 0.0 | 0.0 | 0.00 | 0.09 | 0.00 | 89 | 1009.0 |
| 20260505231035 | 54 | 314 | 0.0 | 2.0 | 0.00 | 0.09 | 0.00 | 90 | 1009.0 |
| 20260505225234 | 54 | 237 | 0.0 | 1.0 | 0.00 | 0.09 | 0.00 | 88 | 1008.9 |
| 20260505224334 | 54 | 0 | 0.0 | 0.0 | 0.00 | 0.09 | 0.00 | 88 | 1008.8 |
| 20260505223434 | 54 | 0 | 0.0 | 0.0 | 0.00 | 0.09 | 0.00 | 88 | 1009.0 |
| 20260505222534 | 55 | 0 | 0.0 | 0.0 | 0.00 | 0.09 | 0.00 | 88 | 1008.8 |
| 20260505221634 | 55 | 1 | 0.0 | 1.0 | 0.00 | 0.09 | 0.00 | 88 | 1008.9 |
| 20260505220734 | 55 | 355 | 0.0 | 2.0 | 0.00 | 0.09 | 0.00 | 88 | 1009.1 |
| 20260505214034 | 56 | 347 | 0.0 | 5.0 | 0.00 | 0.09 | 0.09 | 89 | 1009.1 |
| 20260505212235 | 56 | 344 | 3.0 | 5.0 | 0.00 | 0.09 | 0.09 | 81 | 1008.6 |
| 20260505211335 | 56 | 337 | 1.0 | 4.0 | 0.00 | 0.11 | 0.09 | 78 | 1008.7 |
| 20260505205534 | 56 | 297 | 1.0 | 4.0 | 0.00 | 0.13 | 0.09 | 74 | 1008.3 |
| 20260505204634 | 56 | 295 | 2.0 | 3.0 | 0.00 | 0.13 | 0.09 | 75 | 1008.2 |
| 20260505203735 | 56 | 290 | 0.0 | 7.0 | 0.00 | 0.13 | 0.09 | 75 | 1008.1 |
| 20260505201934 | 56 | 294 | 2.0 | 6.0 | 0.00 | 0.13 | 0.09 | 75 | 1007.8 |
| 20260505201034 | 56 | 280 | 1.0 | 7.0 | 0.00 | 0.13 | 0.09 | 75 | 1007.7 |
| 20260505200135 | 56 | 301 | 3.0 | 8.0 | 0.00 | 0.13 | 0.09 | 77 | 1007.7 |
| 20260505195234 | 56 | 300 | 1.0 | 7.0 | 0.00 | 0.13 | 0.09 | 77 | 1007.7 |
| 20260505193434 | 56 | 309 | 3.0 | 8.0 | 0.01 | 0.13 | 0.09 | 78 | 1007.3 |
| 20260505192534 | 56 | 315 | 1.0 | 4.0 | 0.08 | 0.13 | 0.09 | 76 | 1007.4 |
| 20260505190734 | 56 | 333 | 2.0 | 4.0 | 0.09 | 0.13 | 0.09 | 74 | 1007.1 |
| 20260505185834 | 57 | 315 | 2.0 | 4.0 | 0.09 | 0.13 | 0.09 | 71 | 1006.9 |
| 20260505184034 | 58 | 328 | 3.0 | 6.0 | 0.08 | 0.12 | 0.09 | 60 | 1006.6 |
| 20260505183134 | 60 | 316 | 3.0 | 9.0 | 0.07 | 0.11 | 0.08 | 49 | 1006.9 |
| 20260505182234 | 64 | 310 | 4.0 | 9.0 | 0.00 | 0.04 | 0.00 | 32 | 1007.1 |
| 20260505181334 | 64 | 346 | 2.0 | 8.0 | 0.00 | 0.04 | 0.00 | 33 | 1007.0 |
| 20260505180435 | 65 | 55 | 0.0 | 4.0 | 0.00 | 0.04 | 0.00 | 28 | 1006.5 |
| 20260505175534 | 65 | 1 | 0.0 | 6.0 | 0.00 | 0.04 | 0.00 | 27 | 1006.0 |
| 20260505174634 | 66 | 20 | 2.0 | 6.0 | 0.00 | 0.04 | 0.00 | 24 | 1005.7 |
| 20260505173734 | 67 | 96 | 1.0 | 4.0 | 0.00 | 0.04 | 0.00 | 20 | 1006.1 |
| 20260505172834 | 68 | 83 | 0.0 | 5.0 | 0.00 | 0.04 | 0.00 | 19 | 1006.2 |
| 20260505171934 | 69 | 41 | 2.0 | 6.0 | 0.00 | 0.04 | 0.00 | 18 | 1006.3 |
| 20260505164334 | 73 | 179 | 2.0 | 4.0 | 0.00 | 0.04 | 0.00 | 12 | 1006.2 |
| 20260505162534 | 73 | 342 | 2.0 | 6.0 | 0.00 | 0.04 | 0.00 | 13 | 1006.2 |
| 20260505161634 | 71 | 331 | 2.0 | 5.0 | 0.00 | 0.04 | 0.00 | 15 | 1006.4 |
| 20260505160734 | 72 | 316 | 0.0 | 4.0 | 0.00 | 0.04 | 0.00 | 14 | 1006.4 |
| 20260505153134 | 75 | 72 | 4.0 | 8.0 | 0.00 | 0.04 | 0.00 | 10 | 1006.8 |
| 20260505152234 | 74 | 41 | 2.0 | 8.0 | 0.00 | 0.04 | 0.00 | 10 | 1007.0 |
| 20260505151334 | 76 | 84 | 2.0 | 8.0 | 0.00 | 0.04 | 0.00 | 10 | 1006.8 |
| 20260505150434 | 77 | 72 | 4.0 | 8.0 | 0.00 | 0.04 | 0.00 | 10 | 1006.9 |
| 20260505140134 | 78 | 78 | 2.0 | 10.0 | 0.00 | 0.04 | 0.00 | 10 | 1007.5 |
| 20260505124934 | 75 | 358 | 4.0 | 8.0 | 0.00 | 0.04 | 0.00 | 11 | 1008.2 |
| 20260505124034 | 77 | 11 | 2.0 | 6.0 | 0.00 | 0.04 | 0.00 | 10 | 1008.2 |
| 20260505123134 | 78 | 323 | 1.0 | 5.0 | 0.00 | 0.04 | 0.00 | 10 | 1008.1 |
| 20260505122234 | 78 | 351 | 3.0 | 5.0 | 0.00 | 0.04 | 0.00 | 10 | 1008.4 |
| 20260505121334 | 75 | 310 | 0.0 | 7.0 | 0.00 | 0.04 | 0.00 | 10 | 1008.3 |
| 20260505120434 | 75 | 296 | 3.0 | 8.0 | 0.00 | 0.04 | 0.00 | 10 | 1008.5 |
| 20260505115534 | 76 | 316 | 2.0 | 4.0 | 0.00 | 0.04 | 0.00 | 10 | 1008.3 |
| 20260505114634 | 76 | 304 | 2.0 | 7.0 | 0.00 | 0.04 | 0.00 | 10 | 1008.6 |
| 20260505112834 | 76 | 292 | 1.0 | 3.0 | 0.00 | 0.04 | 0.00 | 10 | 1008.7 |
| 20260505111934 | 76 | 310 | 0.0 | 6.0 | 0.00 | 0.04 | 0.00 | 10 | 1008.6 |
| 20260505111034 | 76 | 156 | 2.0 | 5.0 | 0.00 | 0.04 | 0.00 | 10 | 1008.8 |
| 20260505110134 | 79 | 158 | 2.0 | 8.0 | 0.00 | 0.04 | 0.00 | 10 | 1008.8 |
| 20260505101634 | 80 | 79 | 1.0 | 4.0 | 0.00 | 0.04 | 0.00 | 10 | 1009.0 |
| 20260505100734 | 79 | 79 | 2.0 | 4.0 | 0.00 | 0.04 | 0.00 | 10 | 1009.2 |
| 20260505095834 | 79 | 339 | 2.0 | 4.0 | 0.00 | 0.04 | 0.00 | 10 | 1009.3 |
| 20260505094034 | 79 | 270 | 2.0 | 4.0 | 0.00 | 0.04 | 0.00 | 10 | 1009.5 |
| 20260505093134 | 77 | 355 | 0.0 | 4.0 | 0.00 | 0.04 | 0.00 | 10 | 1009.5 |
| 20260505091334 | 77 | 34 | 2.0 | 4.0 | 0.00 | 0.04 | 0.00 | 10 | 1009.6 |
| 20260505090434 | 77 | 80 | 2.0 | 3.0 | 0.00 | 0.04 | 0.00 | 10 | 1009.7 |
| 20260505085534 | 77 | 314 | 1.0 | 4.0 | 0.00 | 0.04 | 0.00 | 10 | 1009.6 |
| 20260505084634 | 76 | 73 | 2.0 | 4.0 | 0.00 | 0.04 | 0.00 | 10 | 1009.8 |
| 20260505083734 | 76 | 104 | 1.0 | 4.0 | 0.00 | 0.04 | 0.00 | 10 | 1009.7 |
| 20260505082834 | 77 | 116 | 2.0 | 5.0 | 0.00 | 0.04 | 0.00 | 10 | 1009.9 |
| 20260505081934 | 77 | 103 | 1.0 | 4.0 | 0.00 | 0.04 | 0.00 | 10 | 1010.0 |
| 20260505081034 | 77 | 77 | 2.0 | 4.0 | 0.00 | 0.04 | 0.00 | 10 | 1010.2 |
| 20260505080134 | 76 | 348 | 0.0 | 4.0 | 0.00 | 0.04 | 0.00 | 15 | 1009.9 |
| 20260505075234 | 74 | 324 | 2.0 | 4.0 | 0.00 | 0.04 | 0.00 | 14 | 1010.2 |
| 20260505074334 | 74 | 317 | 2.0 | 3.0 | 0.00 | 0.04 | 0.00 | 13 | 1010.3 |
| 20260505073434 | 75 | 151 | 1.0 | 3.0 | 0.00 | 0.04 | 0.00 | 16 | 1010.3 |
| 20260505072534 | 75 | 55 | 1.0 | 2.0 | 0.00 | 0.04 | 0.00 | 16 | 1010.3 |
| 20260505071634 | 73 | 353 | 0.0 | 4.0 | 0.00 | 0.04 | 0.00 | 17 | 1010.4 |
| 20260505070734 | 73 | 202 | 1.0 | 3.0 | 0.00 | 0.04 | 0.00 | 17 | 1010.5 |
| 20260505065834 | 72 | 314 | 1.0 | 3.0 | 0.00 | 0.04 | 0.00 | 18 | 1010.5 |
| 20260505064934 | 73 | 314 | 1.0 | 3.0 | 0.00 | 0.04 | 0.00 | 17 | 1010.7 |
| 20260505064034 | 73 | 331 | 0.0 | 2.0 | 0.00 | 0.04 | 0.00 | 20 | 1010.8 |
| 20260505062234 | 71 | 1 | 1.0 | 2.0 | 0.00 | 0.04 | 0.00 | 22 | 1010.8 |
| 20260505061334 | 72 | 355 | 0.0 | 2.0 | 0.00 | 0.04 | 0.00 | 27 | 1010.7 |
| 20260505055534 | 70 | 1 | 0.0 | 2.0 | 0.00 | 0.04 | 0.00 | 66 | 1010.8 |
| 20260505054634 | 67 | 0 | 0.0 | 0.0 | 0.00 | 0.04 | 0.00 | 99 | 1010.6 |
| 20260505053734 | 61 | 0 | 0.0 | 0.0 | 0.00 | 0.04 | 0.00 | 99 | 1011.0 |
| 20260505052834 | 58 | 0 | 0.0 | 0.0 | 0.00 | 0.04 | 0.00 | 99 | 1010.8 |
| 20260505051934 | 57 | 340 | 0.0 | 2.0 | 0.00 | 0.04 | 0.00 | 99 | 1011.0 |
| 20260505040734 | 51 | 181 | 0.0 | 1.0 | 0.00 | 0.04 | 0.00 | 99 | 1011.1 |
| 20260505035834 | 51 | 181 | 0.0 | 1.0 | 0.00 | 0.04 | 0.00 | 99 | 1010.8 |
| 20260505034934 | 51 | 181 | 0.0 | 1.0 | 0.00 | 0.04 | 0.00 | 99 | 1010.9 |
| 20260505034034 | 51 | 278 | 0.0 | 1.0 | 0.00 | 0.04 | 0.00 | 99 | 1010.8 |
| 20260505033134 | 51 | 314 | 0.0 | 1.0 | 0.00 | 0.04 | 0.00 | 99 | 1010.9 |
| 20260505032234 | 51 | 314 | 0.0 | 1.0 | 0.00 | 0.04 | 0.00 | 99 | 1011.1 |
| 20260505031334 | 51 | 0 | 0.0 | 0.0 | 0.00 | 0.04 | 0.00 | 99 | 1011.2 |
| 20260505025534 | 51 | 0 | 0.0 | 0.0 | 0.00 | 0.04 | 0.00 | 99 | 1011.5 |
| 20260505024634 | 51 | 0 | 0.0 | 0.0 | 0.00 | 0.04 | 0.00 | 99 | 1011.5 |
| 20260505023734 | 51 | 314 | 0.0 | 1.0 | 0.00 | 0.04 | 0.00 | 99 | 1011.7 |
| 20260505022834 | 51 | 314 | 0.0 | 1.0 | 0.00 | 0.04 | 0.00 | 99 | 1011.8 |
| 20260505021934 | 51 | 314 | 0.0 | 1.0 | 0.00 | 0.04 | 0.00 | 99 | 1011.7 |
| 20260505020134 | 51 | 252 | 0.0 | 2.0 | 0.00 | 0.04 | 0.00 | 99 | 1011.7 |
| 20260505015234 | 51 | 189 | 0.0 | 2.0 | 0.00 | 0.04 | 0.00 | 99 | 1011.7 |
| 20260505014334 | 51 | 342 | 0.0 | 2.0 | 0.00 | 0.04 | 0.00 | 99 | 1011.7 |
| 20260505013434 | 51 | 296 | 0.0 | 1.0 | 0.00 | 0.04 | 0.00 | 98 | 1011.7 |
| 20260505011633 | 51 | 292 | 0.0 | 1.0 | 0.00 | 0.04 | 0.00 | 96 | 1011.6 |
| 20260505010733 | 51 | 294 | 0.0 | 1.0 | 0.00 | 0.04 | 0.00 | 96 | 1011.6 |
| 20260505005834 | 51 | 1 | 0.0 | 1.0 | 0.00 | 0.04 | 0.00 | 95 | 1011.8 |
| 20260505004934 | 51 | 1 | 0.0 | 2.0 | 0.00 | 0.04 | 0.00 | 94 | 1012.0 |
| 20260505004033 | 51 | 1 | 0.0 | 2.0 | 0.00 | 0.04 | 0.00 | 93 | 1012.1 |
| 20260505003134 | 51 | 1 | 0.0 | 2.0 | 0.00 | 0.04 | 0.00 | 92 | 1012.3 |
| 20260505002234 | 51 | 1 | 0.0 | 1.0 | 0.00 | 0.04 | 0.00 | 92 | 1012.3 |
| 20260505001334 | 51 | 1 | 0.0 | 1.0 | 0.00 | 0.04 | 0.00 | 92 | 1012.3 |
| 20260504235534 | 51 | 181 | 0.0 | 2.0 | 0.00 | 0.04 | 0.00 | 89 | 1012.6 |